Regional Weather Roundup
Issued by NWS

Home | Current Version | Previous Version | Text Only | Print | Product List | Glossary On
Versions: 1 2 3 4 5 6 7 8 9 10 11 12 13 14 15 16 17 18 19 20 21 22 23 24 25 26 27 28 29 30 31 32 33 34 35 36 37 38 39 40 41 42 43 44 45 46 47 48 49 50
000
ASUS43 KDTX 042310
RWRMI
MICHIGAN HOURLY REGIONAL WEATHER ROUNDUP
NATIONAL WEATHER SERVICE DETROIT/PONTIAC MI
ISSUED BY NATIONAL WEATHER SERVICE GRAND RAPIDS MI
700 PM EDT FRI SEP 04 2015

NOTE: "FAIR" INDICATES FEW OR NO CLOUDS BELOW 12,000 FEET WITH NO
SIGNIFICANT WEATHER AND/OR OBSTRUCTION TO VISIBILITY.

MIZ047>049-052>055-059>063-066>070-074>076-081>083-050000-
SOUTHEAST LOWER MICHIGAN

CITY           SKY/WX    TMP DP  RH WIND       PRES   REMARKS
ADRIAN         CLOUDY    79  70  74 W5        30.04S
ALMA           CLOUDY    73  70  89 CALM      30.04S
ANN ARBOR      CLOUDY    78  71  79 SE9       30.03R
BAD AXE        CLOUDY    74  70  85 SE6       30.05S HAZE
DETROIT CITY   PTSUNNY   78  70  76 S8        30.04R
DETROIT        CLOUDY    78  69  73 SE8       30.04R
FLINT          CLOUDY    79  66  64 CALM      30.04R
GROSSE ILE     CLOUDY    75  72  88 E6        30.03R
HILLSDALE      CLOUDY    76  70  80 CALM      30.06S
HOWELL         PTSUNNY   78  65  65 CALM      30.04S

CITY           SKY/WX    TMP DP  RH WIND       PRES   REMARKS
JACKSON        CLOUDY    76  68  76 W5        30.04S
LANSING        CLOUDY    76  67  73 CALM      30.04S
MASON          CLOUDY    77  65  66 CALM      30.04S
MONROE         CLOUDY    75  71  87 E3        30.02S
MT. CLEMENS    MOSUNNY   76  70  81 SE6       30.03R
PONTIAC        PTSUNNY   79  67  66 W8        30.05R
PORT HOPE        N/A     74  70  87 SE8       30.04S
PORT HURON     PTSUNNY   79  68  69 S5        30.04R
TRI CITIES     CLOUDY    76  69  79 SW3       30.05R
YPSILANTI      CLOUDY    80  71  74 SE8       30.04R
$$
MIZ043>046-050>051-056>058-064>065-071>073-077>080-050000-
SOUTHWEST LOWER MICHIGAN

CITY           SKY/WX    TMP DP  RH WIND       PRES   REMARKS
BATTLE CREEK   CLOUDY    78  66  66 N3        30.04F
BENTON HARBOR  PTSUNNY   73  66  78 VRB3      30.04S
BIG RAPIDS     PTSUNNY   73  69  85 E3        30.04S
COLDWATER      CLOUDY    76  69  79 CALM      30.03F
HOLLAND        PTSUNNY   75  66  73 CALM      30.04F
GRAND RAPIDS   PTSUNNY   76  69  79 NE5       30.03F
KALAMAZOO      CLOUDY    79  66  64 NW5       30.04S
MARSHALL       CLOUDY    77  68  74 CALM      30.03F
MOUNT PLEASANT CLOUDY    74  70  87 CALM      30.04R
MUSKEGON       PTSUNNY   75  67  76 SW9       30.03F
STURGIS        CLOUDY    77  72  83 SE3       30.03F
$$
MIZ016>042-050000-
NORTHERN LOWER MICHIGAN

CITY           SKY/WX    TMP DP  RH WIND       PRES   REMARKS
ALPENA         CLOUDY    74  67  78 E7        30.09R
BEAVER ISLAND  MOSUNNY   73  66  81 E6        30.06S
BELLAIRE       CLOUDY    75  68  77 SE3       30.05R
CADILLAC       CLOUDY    71  69  92 E5        30.06R
CHARLEVOIX     PTSUNNY   75  69  79 E7        30.08R
GAYLORD        PTSUNNY   74  70  87 E3        30.08R
HOUGHTON LAKE  PTSUNNY   72  67  84 CALM      30.07R
MANISTEE       CLOUDY    72  66  83 W5        30.04S
OSCODA         PTSUNNY   71  68  90 NE8       30.06S FOG
PELLSTON       MOSUNNY   74  67  78 E9        30.07S
TRAVERSE CITY  PTSUNNY   75  68  78 CALM      30.03S
LUDINGTON      PTSUNNY   76  71  83 N3        30.04S
$$
MIZ007>008-015-050000-
EASTERN UPPER MICHIGAN

CITY           SKY/WX    TMP DP  RH WIND       PRES   REMARKS
KINROSS        MOSUNNY   75  68  78 E9        30.09S
MACKINAC ISLAN MOSUNNY   67  65  93 E13G20    30.08S
NEWBERRY       PTSUNNY   78  67  70 E10       30.07R
S. S. MARIE    MOSUNNY   76  66  71 SE9       30.08F
$$
MIZ004>006-011>014-085-050000-
CENTRAL UPPER MICHIGAN

CITY           SKY/WX    TMP DP  RH WIND       PRES   REMARKS
MANISTIQUE     CLOUDY    72  66  81 E7        30.06S
ESCANABA       SUNNY     73  64  73 SE9       30.03S
MENOMINEE      SUNNY     72  63  73 E8        30.03S
$$
MIZ001>003-009>011-084-050000-
WESTERN UPPER MICHIGAN

CITY           SKY/WX    TMP DP  RH WIND       PRES   REMARKS
IRON MOUNTAIN  MOSUNNY   79  64  60 E8        30.03F
HOUGHTON       SUNNY     70  57  63 E10       30.05R
COPPER HARBOR    N/A     73  54  51 VRB6      30.05R
IRONWOOD       SUNNY     82  66  57 SE8       29.97S
$$

ABBREVIATIONS USED IN REMARKS
   TC - TEMPERATURE IN CELSIUS
  WCI - WIND CHILL INDEX
   HX - HEAT INDEX
  VSB - VISIBILITY



USA.gov is the U.S. government's official web portal to all federal, state and local government web resources and services.